AO-07 1 07530U 74089B 14254.80586541 -.00000015 00000-0 17724-3 0 583 2 07530 101.4826 233.8146 0012288 124.5377 309.7187 12.53606844822372 FO-29 1 24278U 96046B 14253.64663101 -.00000028 00000-0 46186-5 0 4604 2 24278 098.5151 255.7115 0351442 075.9942 055.3336 13.53029084892228 SO-33 1 25509U 98061B 14253.75436214 .00001235 00000-0 23126-3 0 8326 2 25509 031.4336 035.5335 0349215 144.1336 319.9084 14.29598617829402 RS-22 1 27939U 03042A 14254.54943406 .00000860 00000-0 16756-3 0 8384 2 27939 097.8160 064.4422 0012815 189.2090 170.8878 14.65314307585372 HO-68 1 36122U 09072B 14254.68131594 -.00000043 00000-0 00000 0 0 9273 2 36122 100.2401 303.8866 0007592 040.7316 319.4362 13.16317858227813 AO-73 1 39444U 13066AE 14253.77171183 .00001492 00000-0 20484-3 0 2428 2 39444 097.7652 321.4925 0061408 326.3202 033.4114 14.78561479 42111 EO-79 1 40025U 14033R 14254.65071363 .00002073 00000-0 24660-3 0 2322 2 40025 097.9746 149.4367 0014646 021.1824 338.9998 14.85417483 12421 UO-11 1 14781U 84021B 14254.74422117 .00000954 00000-0 12764-3 0 5942 2 14781 097.8431 313.1474 0007457 253.8888 106.1504 14.81722385640786 AO-16 1 20439U 90005D 14253.81094917 .00000188 00000-0 85729-4 0 1080 2 20439 098.5111 189.5520 0009721 264.9465 148.3840 14.32383927286747 LO-19 1 20442U 90005G 14254.82219560 .00000160 00000-0 74680-4 0 453 2 20442 098.4821 190.9386 0010757 249.3292 110.6739 14.32584886287084 AO-27 1 22825U 93061C 14254.82855679 .00000151 00000-0 76198-4 0 7567 2 22825 098.6694 200.4766 0009145 050.3980 002.5126 14.29743245 93168 IO-26 1 22826U 93061D 14253.81583186 .00000198 00000-0 93719-4 0 5137 2 22826 098.6635 199.6742 0009619 045.9216 314.2756 14.30045633 93154 GO-32 1 25397U 98043D 14253.84057455 .00000099 00000-0 62146-4 0 4359 2 25397 098.4785 208.6720 0002321 080.7803 308.4193 14.23459139840054 NO-44 1 26931U 01043C 14254.20419297 .00000112 00000-0 75030-4 0 6900 2 26931 067.0522 176.6409 0007378 277.6988 082.3275 14.30147299675904 SO-50 1 27607U 02058C 14253.71615926 .00000730 00000-0 12918-3 0 4976 2 27607 064.5572 331.5967 0058210 347.4423 012.5225 14.73892999630085 CO-55 1 27844U 03031E 14253.59145931 .00000301 00000-0 15717-3 0 106 2 27844 098.6998 261.1372 0010124 035.6616 079.6071 14.21551833580717 CO-57 1 27848U 03031J 14253.74418473 .00000244 00000-0 13207-3 0 9513 2 27848 098.7093 261.0455 0010165 041.6986 012.8347 14.21233092580653 AO-51 1 28375U 04025K 14253.79779619 .00000317 00000-0 10645-3 0 9277 2 28375 098.2575 197.8222 0084346 093.7807 267.3032 14.41421391536246 CP3 1 31129U 07012N 14254.82773925 .00001369 00000-0 30858-3 0 8406 2 31129 097.9439 228.4668 0099730 101.0931 324.8323 14.54824315392633 CO-65 1 32785U 08021C 14254.79332235 .00001784 00000-0 21233-3 0 496 2 32785 097.6905 303.2136 0012418 261.3234 161.6190 14.85515287344885 PRISM 1 33493U 09002B 14254.86265249 .00004133 00000-0 43443-3 0 2772 2 33493 098.2531 074.2515 0017969 157.3944 202.8113 14.89924159305086 SOHLA-1 1 33496U 09002E 14254.80092262 .00000619 00000-0 10940-3 0 4494 2 33496 098.1799 015.9951 0005453 337.2810 150.5194 14.70883226302248 TISAT-1 1 36799U 10035E 14254.75470554 .00002609 00000-0 30434-3 0 5389 2 36799 098.0170 347.4194 0014510 043.9369 316.3002 14.86013953225574 STUDSAT 1 36801U 10035G 14253.81207434 .00014295 00000-0 12075-2 0 8831 2 36801 098.0395 356.2746 0008737 015.2941 099.8460 14.98185749225948 ALMASAT-1 1 38078U 12006B 14253.83970999 .00030019 33576-5 60451-3 0 1379 2 38078 069.4687 212.0170 0580885 277.8294 097.1877 14.54095465134071 XATCOBEO 1 38082U 12006F 14243.34478676 .13583328 43697-5 37939-3 0 5637 2 38082 069.3815 097.0364 0033293 225.1799 135.4582 16.41261006136239 CUBEBUG-1 1 39153U 13018D 14254.75402158 .00001461 00000-0 20972-3 0 4622 2 39153 098.0375 334.8699 0018844 071.7728 288.5536 14.77906242 74341 ESTCUBE-1 1 39161U 13021C 14254.73287723 .00001133 00000-0 19647-3 0 4603 2 39161 098.0930 334.9820 0011221 116.6401 243.5968 14.70147984 72311 DUCHIFAT-1 1 40021U 14033M 14254.71079196 .00002706 00000-0 31859-3 0 2395 2 40021 097.9737 149.5321 0015123 024.3256 335.8674 14.85588488 12424 NANOSATCBR1 1 40024U 14033Q 14254.71648717 .00002447 00000-0 28956-3 0 2294 2 40024 097.9737 149.5070 0014273 021.7928 338.3899 14.85469395 12422 DTUSAT-2 1 40030U 14033W 14254.67144818 .00001841 00000-0 22184-3 0 2260 2 40030 097.9697 149.4000 0012762 018.5895 341.5855 14.85044827 12421 ANTELSAT 1 40034U 14033AA 14254.76937145 .00001534 00000-0 24936-3 0 2331 2 40034 097.9687 147.6938 0060680 291.6840 067.7927 14.71362907 12334 MET-2/21 1 22782U 93055A 14254.76410947 .00000024 00000-0 83097-5 0 1571 2 22782 082.5468 104.6184 0022582 025.5362 023.0152 13.83743181 62091 OKEAN-4 1 23317U 94066A 14254.78401778 .00001364 00000-0 15397-3 0 6370 2 23317 082.5412 346.7327 0021307 168.9435 348.4981 14.85690396 75966 NOAA-14 1 23455U 94089A 14254.41766389 -.00000040 00000-0 20424-5 0 8934 2 23455 098.7741 336.3083 0010264 150.1380 349.9180 14.13986404 16139 NOAA-15 1 25338U 98030A 14254.53163078 .00000167 00000-0 89847-4 0 3314 2 25338 098.7591 248.2478 0009540 254.7941 213.3842 14.25465288849141 RESURS 1 25394U 98043A 14254.83496045 .00000029 00000-0 30762-4 0 7454 2 25394 098.4235 215.5997 0001839 050.8634 003.5624 14.24397766840653 FENGYUN1 1 25730U 99025A 14253.79474942 .00002008 00000-0 11179-2 0 2346 2 25730 098.9178 214.3884 0020568 227.4069 196.1675 14.12052271789602 OKEAN-0 1 25860U 99039A 14253.83265918 .00000890 00000-0 13867-3 0 3481 2 25860 098.0533 217.2388 0001946 114.1326 301.6327 14.75375960814787 NOAA-16 1 26536U 00055A 14254.39764243 -.00000091 00000-0 -24284-4 0 8272 2 26536 098.9820 315.0998 0009514 302.1086 057.9162 14.13036683720288 NOAA-17 1 27453U 02032A 14254.43236746 .00000156 00000-0 84425-4 0 7200 2 27453 098.3198 249.6243 0010467 281.0627 078.9376 14.24773690634966 NOAA-18 1 28654U 05018A 14254.48792391 .00000092 00000-0 75583-4 0 2354 2 28654 099.1578 235.7576 0014635 026.3191 087.0119 14.12060615479745 NOAA-19 1 33591U 09005A 14254.53440135 .00000207 00000-0 13833-3 0 3743 2 33591 098.9514 199.3409 0013158 233.3767 232.8230 14.11759884288177 HUBBLE 1 20580U 90037B 14254.24786861 .00003288 00000-0 21002-3 0 1083 2 20580 028.4698 191.2833 0003159 123.4304 028.2031 15.05710928137708 ISS 1 25544U 98067A 14254.93151858 .00002330 00000-0 48059-4 0 737 2 25544 051.6498 029.6574 0004007 096.6660 358.4444 15.50456231904784 CO-58 1 28895U 05043F 14254.44831353 .00000851 00000-0 17814-3 0 8640 2 28895 097.8298 091.8232 0018809 098.6180 261.7154 14.62008828472851 FALCON 1 30776U 07006E 14253.62662050 .00008881 00000-0 43807-3 0 9505 2 30776 035.4292 304.4085 0001654 300.1120 196.6207 15.17247515413712 MAST 1 31126U 07012K 14254.83046443 .00001009 00000-0 22911-3 0 1395 2 31126 097.9241 231.2509 0093448 084.4069 321.4609 14.55373604392993 CAPE1 1 31130U 07012P 14253.65186506 .00001268 00000-0 28800-3 0 1440 2 31130 097.9451 226.8942 0100307 106.1473 255.0793 14.54562618392233 COMPASS 1 32787U 08021E 14253.76495597 .00002872 00000-0 31617-3 0 312 2 32787 097.6928 304.8271 0012374 255.6785 104.3059 14.88276132344915 AAUSAT2 1 32788U 08021F 14254.73537322 .00004060 00000-0 43646-3 0 196 2 32788 097.6933 306.8632 0011880 249.9308 110.0631 14.89024342345122 DO-64 1 32789U 08021G 14254.77650560 .00007989 00000-0 75008-3 0 618 2 32789 097.7121 314.2620 0011227 231.7143 267.6783 14.94175046345428 CO-66 1 32791U 08021J 14254.67533676 .00003196 00000-0 36350-3 0 149 2 32791 097.6922 304.2913 0012929 256.8838 103.0936 14.86864126344902 RS-30 1 32953U 08025A 14254.75368456 .00000010 00000-0 00000 0 0 2787 2 32953 082.5109 147.4030 0019111 333.0660 026.9432 12.43050135286019 METEOR-M 1 35865U 09049A 14254.70651480 -.00000010 00000-0 14739-4 0 8793 2 35865 098.5417 299.4596 0001970 187.7023 172.4122 14.21928406258632 RS-38 1 35869U 09049E 14254.75146609 .00000043 00000-0 38536-4 0 7890 2 35869 098.5344 299.2655 0004644 189.7521 307.9655 14.22225329258670 JUGNU 1 37839U 11058B 14254.87545424 .00000448 00000-0 97094-4 0 6895 2 37839 019.9619 089.5322 0018981 219.7348 267.1062 14.12333961150820 SRMSAT 1 37841U 11058D 14252.02563081 .00000385 00000-0 67050-4 0 6891 2 37841 019.9719 127.8116 0012015 124.7304 024.5453 14.10370494150212 RAX-2 1 37853U 11061D 14246.46374243 .00005349 00000-0 36591-3 0 9038 2 37853 101.7074 313.4726 0214620 190.2077 294.9792 14.90101173154318 AUBIESAT 1 37854U 11061E 14254.76349539 .00013495 00000-0 87541-3 0 8908 2 37854 101.7095 327.9056 0211878 162.8949 317.4773 14.91668358155611 HRBE 1 37855U 11061F 14254.77134848 .00011523 00000-0 75910-3 0 9071 2 37855 101.7104 327.1427 0214001 164.4196 196.3732 14.90922336155572 RS-39 1 38051U 11062C 14254.81619330 .00222278 00000-0 13249-2 0 9022 2 38051 051.6207 142.5961 0007986 187.9875 288.2352 15.76688774147699 E-STAR 1 38079U 12006C 14254.76981350 .00102138 57791-5 10037-2 0 9645 2 38079 069.4475 121.2909 0327354 229.0950 257.6261 15.20637456136579 GOLIAT 1 38085U 12006J 14254.76985467 .00086054 50618-5 91107-3 0 3444 2 38085 069.4519 130.5954 0354829 233.5544 123.2432 15.13653245136321 HORYU-2 1 38340U 12025D 14254.44806369 .00001887 00000-0 30341-3 0 9600 2 38340 098.2686 213.1563 0011296 262.8704 097.1228 14.72754020124499 RS-40 1 38735U 12041C 14254.68101198 .00000024 00000-0 10000-3 0 6722 2 38735 082.4717 233.6035 0018340 067.3884 292.9135 12.42561191 96324 PROITERES 1 38756U 12047B 14254.68285934 .00000798 00000-0 12616-3 0 1966 2 38756 098.2255 344.3896 0014026 105.6634 254.6047 14.75075665107931 BEESAT-3 1 39134U 13015E 14254.53130337 .00007613 00000-0 52419-3 0 6977 2 39134 064.8651 225.1014 0033663 292.7428 067.0137 15.06072308 76663 BEESAT-2 1 39136U 13015G 14254.89880418 .00006610 00000-0 46551-3 0 6808 2 39136 064.8658 224.6961 0033802 292.3357 067.4303 15.05361772 76708 LO-75 1 39382U 13064C 14254.38720819 .00166340 00000-0 20338-2 0 3984 2 39382 040.4910 290.4352 0020641 139.7308 220.4992 15.58793486 45434 ZACUBE-1 1 39417U 13066B 14254.13838659 .00001167 00000-0 16268-3 0 3983 2 39417 097.7656 321.7823 0061637 325.4203 034.3026 14.78317019 43392 TRITON-1 1 39427U 13066M 14254.21731636 .00000958 00000-0 16792-3 0 2506 2 39427 097.7557 315.9261 0118016 337.2677 022.3357 14.65569376 42994 DELFIN3XT 1 39428U 13066N 14253.78188228 .00001522 00000-0 26920-3 0 2547 2 39428 097.7529 314.4871 0127773 341.4092 018.2467 14.63582495 42859 GOMX-1 1 39430U 13066Q 14254.70581194 .00001026 00000-0 20257-3 0 7981 2 39430 097.7471 312.4724 0156227 346.4349 013.2687 14.57005324 42818 MO-76 1 39436U 13066W 14254.74611160 .00013043 00000-0 12916-2 0 3236 2 39436 097.7729 327.0905 0024080 324.9863 034.9809 14.91748813 43773 LO-74 1 39440U 13066AA 14253.91850397 .00001101 00000-0 16900-3 0 2505 2 39440 097.7629 319.2227 0083971 329.9262 029.7140 14.73250114 43209 PUCPSAT-1 1 39442U 13066AC 14253.93991138 .00002111 00000-0 24303-3 0 2494 2 39442 097.7748 325.2455 0034187 326.0889 033.8141 14.86398062 42363 SHINAISAT 1 39572U 14009A 14254.53363852 .00084806 00000-0 48366-3 0 2811 2 39572 065.0025 101.5076 0020856 276.2729 083.6055 15.78147431 30698 TEIKYOSAT 1 39576U 14009E 14254.53425940 .00147659 14239-4 58868-3 0 2943 2 39576 065.0005 097.9135 0021080 281.2561 078.6231 15.86164545 30766 CO-77 1 39577U 14009F 14244.78324653 .10543803 76292-5 32273-3 0 3795 2 39577 064.9920 123.7668 0014904 269.7208 091.1897 16.43552757 29380 SPROUT 1 39770U 14029E 14254.85490731 .00001464 00000-0 18767-3 0 1242 2 39770 097.8727 350.6877 0010916 038.3464 321.8489 14.82751146 16381 POPSAT-HIP1 1 40028U 14033U 14254.86185322 .00001922 00000-0 22995-3 0 2465 2 40028 097.9762 149.6674 0015778 018.5397 341.6394 14.85253969 12447 EO-80 1 40032U 14033Y 14254.67263837 .00001858 00000-0 22385-3 0 2378 2 40032 097.9740 149.4070 0013710 013.7424 346.4221 14.85025082 12421 VELOX-1 1 40057U 14034E 14254.87538503 .00001810 00000-0 28227-3 0 2305 2 40057 098.2463 323.3185 0013107 052.4903 307.7485 14.74131860 10853 DAURIA DX 1 1 40071U 14037C 14254.85612163 .00000871 00000-0 12391-3 0 2016 2 40071 098.3961 309.3971 0010259 056.4787 303.7399 14.79578727 9624 UKUBE-1 1 40074U 14037F 14254.88472087 .00001816 00000-0 24462-3 0 2035 2 40074 098.3967 309.5283 0006600 066.3004 293.8904 14.80513797 9638 CHASQUI-1 1 40117U 98067ET 14254.73139321 .00059005 00000-0 95050-3 0 844 2 40117 051.6480 030.4634 0003549 101.6224 038.4498 15.52365765 3729 /EX